Regional Weather Roundup
Issued by NWS

Home | Current Version | Previous Version | Text Only | Print | Product List | Glossary On
Versions: 1 2 3 4 5 6 7 8 9 10 11 12 13 14 15 16 17 18 19 20 21 22 23 24 25 26 27 28 29 30 31 32 33 34 35 36 37 38 39 40 41 42 43 44 45 46 47 48 49 50
000
ASUS45 KSLC 091010
RWRUT

UTAH REGIONAL WEATHER ROUNDUP
NATIONAL WEATHER SERVICE SALT LAKE CITY UT
300 AM MST TUE FEB 09 2016

UTZ001>011-023>025-091100-

NORTHERN UTAH

CITY           SKY/WX    TMP DP  RH WIND       PRES   REMARKS
BRIGHAM CITY     N/A     12   8  85 CALM      30.63S VSB 1/4
HILL AFB       PTCLDY    26  17  68 E9        30.60S WCI  17
LOGAN          FOG        8   7  95 CALM      30.64R VSB<1/4
OGDEN          PTCLDY    24  19  81 S8        30.60S WCI  15
PROVO AIRPORT  PTCLDY    12   9  85 CALM      30.63S
SALT LAKE CITY PTCLDY    26  22  84 SE7       30.61F WCI  18
VERNAL         CLEAR     10   7  87 W3        30.56R FOG
WENDOVER       PTCLDY    25  21  86 E3        30.61S
HEBER CITY     PTCLDY     7   3  85 CALM      30.59S
WEST JORDAN    CLEAR     25  21  86 S5        30.61F WCI  19

$$

UTZ012>022-026-027-091100-

SOUTHERN/CENTRAL UTAH

CITY           SKY/WX    TMP DP  RH WIND       PRES   REMARKS
BLANDING       PTCLDY    28  18  67 NE3       30.51S
BRYCE CANYON   PTCLDY    19  12  74 W9        30.54S WCI   8
CEDAR CITY     PTCLDY    18  14  84 CALM      30.53F
DELTA          CLOUDY     7   5  90 CALM      30.61S VSB<1/4
HANKSVILLE     MOCLDY    19  19 100 E3        30.55S
MILFORD        FOG       10   6  84 CALM      30.57F VSB 1/2
MOAB/CYNLANDS  PTCLDY    16  14  92 CALM      30.51F FOG
PRICE          PTCLDY    21  14  74 N3        30.48S
ST GEORGE      MOSUNNY   39  25  56 S5        30.47S
KANAB          CLEAR     30  28  93 CALM      30.49S

$$

REGIONAL REPORTS     COLORADO/ARIZONA

CITY           SKY/WX    TMP DP  RH WIND       PRES   REMARKS
CRAIG, CO      CLOUDY    -6 -10  83 CALM      30.54S
GRAND JUNCTION CLOUDY    20  18  92 E6        30.52F WCI  12
RIFLE          CLOUDY    13   8  81 S5        30.54S WCI   5
MONTROSE       CLOUDY    19  13  77 S9        30.54R WCI   8
CORTEZ         CLOUDY    22  17  81 E9        30.43S WCI  12
PAGE, AZ       CLEAR     33  24  69 CALM      30.47S
GRAND CANYON   PTCLDY    23  18  81 CALM      30.47F
KINGMAN        CLEAR     51  23  33 E10       30.35S
FLAGSTAFF      CLEAR     41  14  33 E13       30.44F

$$

REGIONAL REPORTS    NEVADA/IDAHO/WYOMING

CITY           SKY/WX    TMP DP  RH WIND       PRES   REMARKS
LAS VEGAS, NV  CLEAR     50  27  40 S5        30.34R
ELY            PTCLDY     8   5  87 S14       30.58S WCI  -8
ELKO           MOCLDY    11   8  88 NE6       30.60S WCI   1
POCATELLO, ID  FOG       23  22  96 NE8       30.63R VSB 1/2 WCI  14
BURLEY         CLOUDY    28  28 100 E8        30.58S FOG     WCI  20
EVANSTON, WY   CLOUDY    23  17  78 S7        30.55S WCI  15
ROCK SPRINGS   CLOUDY    28  22  78 SW21      30.46S WCI  15

$$



USA.gov is the U.S. government's official web portal to all federal, state and local government web resources and services.